This demonstration page uses our WeatherBlox Daily Observations layout. Learn more.

Left ArrowRight Arrow

Hourly Observations for May 20, 2020

Temp ( °F °C ) Dew Point ( °F °C ) Humidity (%) Winds ( mph kmh ) Pressure ( in mb ) Visibility ( mi km ) Precip ( " mm )
12:53 am 00:53 Clear 81 27.2 48 8.9 32 32 SW 10 17 29.62 1003 10 16 0.00 0.00
1:53 am 01:53 Clear 79 26.1 49 9.4 35 35 SSW 3 6 29.62 1003 10 16 0.00 0.00
2:53 am 02:53 Clear 78 25.6 48 8.9 35 35 E 8 13 29.62 1003 10 16 0.00 0.00
3:53 am 03:53 Clear 77 25 48 8.9 36 36 S 5 7 29.65 1004 10 16 0.00 0.00
4:53 am 04:53 Clear 76 24.4 48 8.9 37 37 SE 8 13 29.65 1004 10 16 0.00 0.00
5:53 am 05:53 Clear 72 22.2 48 8.9 43 43 Calm 29.66 1005 10 16 0.00 0.00
6:53 am 06:53 Sunny 71 21.7 48 8.9 44 44 NE 6 9 29.66 1004 10 16 0.00 0.00
7:53 am 07:53 Sunny 69 20.6 51 10.6 53 53 NNE 3 6 29.69 1005 10 16 0.00 0.00
8:53 am 08:53 Sunny 77 25 54 12.2 45 45 E 3 6 29.70 1006 10 16 0.00 0.00
9:53 am 09:53 Sunny 81 27.2 54 12.2 39 39 SE 7 11 29.70 1006 10 16 0.00 0.00
10:53 am 10:53 Sunny 88 31.1 50 10 27 27 VRB 3 6 29.69 1006 10 16 0.00 0.00
11:53 am 11:53 undefined N/A N/A N/A undefined N/A N/A N/A 0.00 0.00
12:53 pm 12:53 Sunny 92 33.3 48 8.9 22 22 VRB 5 7 29.68 1005 N/A 0.00 0.00
1:53 pm 13:53 Sunny 96 35.6 38 3.3 13 13 W 9 15 29.65 1004 10 16 0.00 0.00
2:53 pm 14:53 Sunny 96 35.6 39 3.9 14 14 VRB 5 7 29.63 1003 10 16 0.00 0.00
3:53 pm 15:53 Sunny 98 36.7 33 0.6 10 10 SW 13 20 29.60 1002 10 16 0.00 0.00
4:53 pm 16:53 Sunny 98 36.7 32 0 10 10 SW 8 13 29.57 1001 10 16 0.00 0.00
5:53 pm 17:53 Sunny 98 36.7 32 0 10 10 SW 14 22 29.55 1001 10 16 0.00 0.00
6:53 pm 18:53 Sunny 98 36.7 31 -0.6 9 9 WNW 16 26 29.52 1000 10 16 0.00 0.00
7:53 pm 19:53 Sunny 96 35.6 29 -1.7 9 9 W 10 17 29.55 1001 10 16 0.00 0.00
8:53 pm 20:53 Clear 89 31.7 30 -1.1 12 12 WNW 7 11 29.55 1001 10 16 0.00 0.00
9:53 pm 21:53 Clear 83 28.3 32 0 16 16 WNW 7 11 29.58 1002 10 16 0.00 0.00
10:53 pm 22:53 Clear 82 27.8 39 3.9 22 22 VRB 6 9 29.63 1003 10 16 0.00 0.00
11:53 pm 23:53 Clear 77 25 45 7.2 32 32 SSE 10 17 29.64 1004 10 16 0.00 0.00

Powered by AerisWeather